Location: *
(51.8167°N, 12.5000°E)
Time: 12:47:27
(UTC+00:00)

ADEOS Rocket - Pass Details

Date: 16 September 2019
Orbit: 859 x 1306 km, 98.7° (Epoch: 20 October)

Event Time Altitude Azimuth Distance (km) Brightness Sun altitude
Rises 20:04:48 0° 13° (NNE) 3,962 6.5 -23.7°
Reaches altitude 10° 20:07:19 10° 10° (N) 3,057 5.9 -24.0°
Maximum altitude 20:14:15 61° 293° (WNW) 1,375 3.9 -24.8°
Drops below altitude 10° 20:21:43 10° 215° (SW) 3,282 5.6 -25.7°
Sets 20:24:30 0° 213° (SSW) 4,271 6.2 -26.0°
